When you browse on this site, cookies collect data to enhance your experience and personalize the content and advertising you see.
Visit our Privacy Policy to learn more. By continuing to use the site, you agree to this use of cookies and data.
  • în România
  • Lista ţărilor
  • Pe 7 zile
  • Temperatura apei
  • Hartă satelitară
  • Meteo pe hartă
  • Widget-uri
  • user-avatar
    Intrare

    Meteo pe oră la Dobrich

    Astăzi, 22 Mai, Miercuri

    Timp Temperatura Precipitaţii Vânt Presiune Umiditate
    00:00 +14°C° 0 mm 2 m/s 736 mmHg 76%
    01:00 +14°C° 0 mm 2 m/s 736 mmHg 75%
    02:00 +13°C° 0 mm 2 m/s 736 mmHg 74%
    03:00 +13°C° 0 mm 2 m/s 737 mmHg 75%
    04:00 +13°C° 0 mm 2 m/s 737 mmHg 77%
    05:00 +13°C° 0 mm 2 m/s 737 mmHg 78%
    06:00 +14°C° 0 mm 3 m/s 737 mmHg 73%
    07:00 +17°C° 0 mm 3 m/s 737 mmHg 69%
    08:00 +19°C° 0 mm 3 m/s 737 mmHg 63%
    09:00 +20°C° 0 mm 4 m/s 737 mmHg 59%
    10:00 +21°C° 0 mm 4 m/s 738 mmHg 55%
    11:00 +22°C° 0 mm 5 m/s 738 mmHg 51%
    12:00 +23°C° 0 mm 5 m/s 737 mmHg 51%
    13:00 +23°C° 0 mm 5 m/s 737 mmHg 51%
    14:00 +23°C° 0 mm 5 m/s 737 mmHg 52%
    15:00 +23°C° 0.1 mm 4 m/s 737 mmHg 56%
    16:00 +22°C° 0.1 mm 3 m/s 736 mmHg 60%
    17:00 +22°C° 0.1 mm 3 m/s 736 mmHg 64%
    18:00 +20°C° 0.2 mm 3 m/s 736 mmHg 69%
    19:00 +18°C° 0.2 mm 2 m/s 736 mmHg 74%
    20:00 +16°C° 0.2 mm 2 m/s 736 mmHg 79%
    21:00 +16°C° 0 mm 2 m/s 736 mmHg 80%
    22:00 +15°C° 0 mm 2 m/s 736 mmHg 80%
    23:00 +15°C° 0 mm 1 m/s 736 mmHg 80%

    Mâine, 23 Mai, Joi

    Timp Temperatura Precipitaţii Vânt Presiune Umiditate
    00:00 +15°C° 0 mm 1 m/s 736 mmHg 80%
    01:00 +15°C° 0 mm 2 m/s 736 mmHg 81%
    02:00 +15°C° 0 mm 2 m/s 736 mmHg 81%
    03:00 +15°C° 0 mm 2 m/s 736 mmHg 82%
    04:00 +15°C° 0 mm 2 m/s 736 mmHg 83%
    05:00 +13°C° 0 mm 3 m/s 736 mmHg 85%
    06:00 +15°C° 0 mm 4 m/s 736 mmHg 80%
    07:00 +18°C° 0 mm 4 m/s 736 mmHg 76%
    08:00 +19°C° 0 mm 5 m/s 736 mmHg 72%
    09:00 +20°C° 0 mm 5 m/s 736 mmHg 68%
    10:00 +21°C° 0 mm 6 m/s 737 mmHg 64%
    11:00 +22°C° 0 mm 6 m/s 737 mmHg 60%
    12:00 +23°C° 0 mm 6 m/s 736 mmHg 59%
    13:00 +23°C° 0 mm 6 m/s 736 mmHg 58%
    14:00 +25°C° 0 mm 5 m/s 736 mmHg 57%
    15:00 +23°C° 0 mm 5 m/s 736 mmHg 60%
    16:00 +23°C° 0 mm 5 m/s 736 mmHg 62%
    17:00 +22°C° 0 mm 5 m/s 735 mmHg 65%
    18:00 +21°C° 0 mm 4 m/s 735 mmHg 70%
    19:00 +19°C° 0 mm 3 m/s 735 mmHg 75%
    20:00 +17°C° 0 mm 3 m/s 735 mmHg 80%
    21:00 +17°C° 0 mm 3 m/s 735 mmHg 83%
    22:00 +16°C° 0 mm 3 m/s 735 mmHg 85%
    23:00 +14°C° 0 mm 3 m/s 736 mmHg 88%

    Poimâine, 24 Mai, Vineri

    Timp Temperatura Precipitaţii Vânt Presiune Umiditate
    00:00 +13°C° 0 mm 3 m/s 735 mmHg 89%
    01:00 +13°C° 0 mm 3 m/s 735 mmHg 89%
    02:00 +13°C° 0 mm 3 m/s 735 mmHg 89%
    03:00 +13°C° 0 mm 3 m/s 735 mmHg 89%
    04:00 +12°C° 0 mm 3 m/s 735 mmHg 89%
    05:00 +12°C° 0 mm 3 m/s 735 mmHg 89%
    06:00 +13°C° 0 mm 3 m/s 735 mmHg 87%
    07:00 +14°C° 0 mm 4 m/s 735 mmHg 84%
    08:00 +15°C° 0 mm 4 m/s 735 mmHg 82%
    09:00 +17°C° 0.1 mm 4 m/s 735 mmHg 79%
    10:00 +18°C° 0.1 mm 4 m/s 735 mmHg 76%
    11:00 +19°C° 0.1 mm 4 m/s 735 mmHg 73%
    12:00 +20°C° 0 mm 3 m/s 735 mmHg 68%
    13:00 +21°C° 0 mm 3 m/s 734 mmHg 63%
    14:00 +23°C° 0 mm 2 m/s 734 mmHg 58%
    15:00 +23°C° 0.3 mm 2 m/s 734 mmHg 59%
    16:00 +23°C° 0.3 mm 2 m/s 733 mmHg 61%
    17:00 +23°C° 0.3 mm 2 m/s 733 mmHg 63%
    18:00 +20°C° 0.5 mm 2 m/s 733 mmHg 71%
    19:00 +18°C° 0.5 mm 2 m/s 733 mmHg 78%
    20:00 +17°C° 0.5 mm 3 m/s 733 mmHg 86%
    21:00 +16°C° 0.1 mm 3 m/s 733 mmHg 87%
    22:00 +16°C° 0.1 mm 3 m/s 733 mmHg 89%
    23:00 +14°C° 0.1 mm 3 m/s 733 mmHg 90%

    25 Mai, Sâmbătă

    Timp Temperatura Precipitaţii Vânt Presiune Umiditate
    00:00 +14°C° 0.2 mm 4 m/s 733 mmHg 90%
    01:00 +13°C° 0.2 mm 4 m/s 733 mmHg 90%
    02:00 +13°C° 0.2 mm 5 m/s 733 mmHg 90%
    03:00 +13°C° 0 mm 4 m/s 733 mmHg 91%
    04:00 +12°C° 0 mm 4 m/s 733 mmHg 91%
    05:00 +12°C° 0 mm 4 m/s 733 mmHg 92%
    06:00 +13°C° 0 mm 5 m/s 734 mmHg 88%
    07:00 +15°C° 0 mm 5 m/s 734 mmHg 84%
    08:00 +16°C° 0 mm 6 m/s 735 mmHg 81%
    09:00 +19°C° 0 mm 6 m/s 735 mmHg 77%
    10:00 +20°C° 0 mm 6 m/s 735 mmHg 72%
    11:00 +21°C° 0 mm 6 m/s 735 mmHg 68%
    12:00 +22°C° 0.7 mm 5 m/s 735 mmHg 67%
    13:00 +22°C° 0.7 mm 5 m/s 735 mmHg 66%
    14:00 +22°C° 0.7 mm 5 m/s 735 mmHg 66%
    15:00 +22°C° 1 mm 5 m/s 735 mmHg 67%
    16:00 +22°C° 1 mm 5 m/s 734 mmHg 69%
    17:00 +22°C° 1 mm 4 m/s 734 mmHg 70%
    18:00 +20°C° 0.2 mm 4 m/s 735 mmHg 75%
    19:00 +19°C° 0.2 mm 4 m/s 735 mmHg 80%
    20:00 +17°C° 0.2 mm 3 m/s 735 mmHg 86%
    21:00 +17°C° 0.1 mm 3 m/s 735 mmHg 87%
    22:00 +16°C° 0.1 mm 3 m/s 736 mmHg 88%
    23:00 +14°C° 0.1 mm 3 m/s 736 mmHg 89%

    26 Mai, Duminică

    Timp Temperatura Precipitaţii Vânt Presiune Umiditate
    00:00 +14°C° 0.1 mm 4 m/s 736 mmHg 90%
    01:00 +14°C° 0.1 mm 4 m/s 736 mmHg 90%
    02:00 +14°C° 0.1 mm 4 m/s 736 mmHg 91%
    03:00 +13°C° 0 mm 3 m/s 736 mmHg 92%
    04:00 +13°C° 0 mm 3 m/s 736 mmHg 93%
    05:00 +13°C° 0 mm 3 m/s 737 mmHg 94%
    06:00 +16°C° 0 mm 2 m/s 737 mmHg 88%
    07:00 +18°C° 0 mm 2 m/s 737 mmHg 82%
    08:00 +20°C° 0 mm 2 m/s 738 mmHg 76%
    09:00 +22°C° 0.1 mm 1 m/s 738 mmHg 71%
    10:00 +23°C° 0.1 mm 1 m/s 738 mmHg 66%
    11:00 +25°C° 0.1 mm 1 m/s 739 mmHg 61%
    12:00 +25°C° 0.8 mm 1 m/s 738 mmHg 60%
    13:00 +25°C° 0.8 mm 2 m/s 738 mmHg 60%
    14:00 +25°C° 0.8 mm 2 m/s 738 mmHg 60%
    15:00 +25°C° 0.3 mm 3 m/s 738 mmHg 63%
    16:00 +24°C° 0.3 mm 3 m/s 738 mmHg 66%
    17:00 +23°C° 0.3 mm 4 m/s 737 mmHg 68%
    18:00 +21°C° 0 mm 3 m/s 737 mmHg 75%
    19:00 +19°C° 0 mm 3 m/s 737 mmHg 82%
    20:00 +17°C° 0 mm 3 m/s 737 mmHg 89%
    21:00 +17°C° 0 mm 3 m/s 737 mmHg 87%
    22:00 +16°C° 0 mm 3 m/s 738 mmHg 86%
    23:00 +16°C° 0 mm 3 m/s 738 mmHg 84%

    27 Mai, Luni

    Timp Temperatura Precipitaţii Vânt Presiune Umiditate
    00:00 +16°C° 0 mm 3 m/s 738 mmHg 85%
    01:00 +16°C° 0 mm 3 m/s 737 mmHg 85%
    02:00 +16°C° 0 mm 3 m/s 737 mmHg 86%
    03:00 +16°C° 0 mm 3 m/s 737 mmHg 87%
    04:00 +16°C° 0 mm 2 m/s 737 mmHg 87%
    05:00 +16°C° 0 mm 2 m/s 738 mmHg 88%
    06:00 +18°C° 0 mm 3 m/s 738 mmHg 83%
    07:00 +20°C° 0 mm 3 m/s 738 mmHg 77%
    08:00 +22°C° 0 mm 3 m/s 738 mmHg 72%
    09:00 +23°C° 0 mm 4 m/s 739 mmHg 68%
    10:00 +25°C° 0 mm 4 m/s 739 mmHg 63%
    11:00 +26°C° 0 mm 4 m/s 739 mmHg 59%
    12:00 +26°C° 0 mm 5 m/s 738 mmHg 59%
    13:00 +26°C° 0 mm 5 m/s 738 mmHg 59%
    14:00 +26°C° 0 mm 5 m/s 738 mmHg 58%
    15:00 +25°C° 0 mm 5 m/s 738 mmHg 61%
    16:00 +23°C° 0 mm 5 m/s 737 mmHg 63%
    17:00 +22°C° 0 mm 5 m/s 737 mmHg 65%
    18:00 +20°C° 0 mm 5 m/s 737 mmHg 70%
    19:00 +19°C° 0 mm 5 m/s 737 mmHg 75%
    20:00 +17°C° 0 mm 4 m/s 737 mmHg 79%
    21:00 +17°C° 0 mm 4 m/s 737 mmHg 80%
    22:00 +17°C° 0 mm 4 m/s 736 mmHg 80%
    23:00 +16°C° 0 mm 5 m/s 736 mmHg 81%
    Arată mai mult